SP3OTE-2 Weather Reports


time (UTC)temp
F
wind
direction
speed
knots
gust
knots
rain 1hr
in
rain 24hr
in
rain mn
in
humidity
%
barometer
mb
20260905170051 64 0.0 0.0 0.00 0.00 0.00 72 1016.3
20260905165051 64 0.0 0.0 0.00 0.00 0.00 70 1016.3
20260905164051 66 0.0 0.0 0.00 0.00 0.00 60 1016.3
20260905163051 67 0.0 0.0 0.00 0.00 0.00 56 1015.8
20260905162051 67 0.0 0.0 0.00 0.00 0.00 55 1015.8
20260905161051 67 0.0 0.0 0.00 0.00 0.00 54 1015.7
20260905160051 67 0.0 0.0 0.00 0.00 0.00 54 1015.6
20260905155051 68 0.0 0.0 0.00 0.00 0.00 53 1015.4
20260905154051 68 0.0 0.0 0.00 0.00 0.00 52 1015.3
20260905153051 68 0.0 0.0 0.00 0.00 0.00 52 1015.3
20260905152051 68 0.0 0.0 0.00 0.00 0.00 53 1015.3
20260905151051 69 0.0 0.0 0.00 0.00 0.00 55 1015.2
20260905150053 70 0.0 0.0 0.00 0.00 0.00 53 1015.1
20260905145051 71 0.0 0.0 0.00 0.00 0.00 51 1015.1
20260905144051 71 0.0 0.0 0.00 0.00 0.00 51 1015.0
20260905143051 71 0.0 0.0 0.00 0.00 0.00 52 1015.0
20260905140926 68 0.0 0.0 0.00 0.00 0.00 52 1015.2
20260905135926 69 0.0 0.0 0.00 0.00 0.00 54 1015.0
20260905134926 71 0.0 0.0 0.00 0.00 0.00 53 1015.0
20260905133926 68 0.0 0.0 0.00 0.00 0.00 54 1015.2
20260905132926 69 0.0 0.0 0.00 0.00 0.00 52 1015.2
20260905131926 70 0.0 0.0 0.00 0.00 0.00 50 1015.0
20260905130926 69 0.0 0.0 0.00 0.00 0.00 57 1015.1
20260905125926 68 0.0 0.0 0.00 0.00 0.00 53 1015.3
20260905124926 68 0.0 0.0 0.00 0.00 0.00 54 1015.3
20260905123926 70 0.0 0.0 0.00 0.00 0.00 55 1015.2
20260905122926 68 0.0 0.0 0.00 0.00 0.00 56 1015.4
20260905121926 70 0.0 0.0 0.00 0.00 0.00 56 1015.4
20260905120926 70 0.0 0.0 0.00 0.00 0.00 55 1015.4
20260905115926 69 0.0 0.0 0.00 0.00 0.00 58 1015.5
20260905114926 70 0.0 0.0 0.00 0.00 0.00 57 1015.3
20260905113926 68 0.0 0.0 0.00 0.00 0.00 58 1015.6
20260905112925 68 0.0 0.0 0.00 0.00 0.00 58 1015.5
20260905111925 69 0.0 0.0 0.00 0.00 0.00 57 1015.5
20260905110926 67 0.0 0.0 0.00 0.00 0.00 63 1015.5
20260905105925 67 0.0 0.0 0.00 0.00 0.00 64 1015.7
20260905104925 66 0.0 0.0 0.00 0.00 0.00 65 1015.7
20260905103928 66 0.0 0.0 0.00 0.00 0.00 64 1015.5
20260905102925 66 0.0 0.0 0.00 0.00 0.00 67 1015.5
20260905101925 67 0.0 0.0 0.00 0.00 0.00 65 1015.5
20260905100925 66 0.0 0.0 0.00 0.00 0.00 70 1015.4
20260905095925 67 0.0 0.0 0.00 0.00 0.00 64 1015.4
20260905094925 66 0.0 0.0 0.00 0.00 0.00 68 1015.4
20260905093925 66 0.0 0.0 0.00 0.00 0.00 72 1015.3
20260905092925 65 0.0 0.0 0.00 0.00 0.00 73 1015.5
20260905091925 65 0.0 0.0 0.00 0.00 0.00 70 1015.4
20260905090925 66 0.0 0.0 0.00 0.00 0.00 70 1015.1
20260905085925 66 0.0 0.0 0.00 0.00 0.00 68 1015.0
20260905084925 65 0.0 0.0 0.00 0.00 0.00 77 1015.0
20260905083925 64 0.0 0.0 0.00 0.00 0.00 77 1015.1
20260905082925 64 0.0 0.0 0.00 0.00 0.00 77 1015.0
20260905081925 64 0.0 0.0 0.00 0.00 0.00 85 1015.1
20260905080925 64 0.0 0.0 0.00 0.00 0.00 88 1015.0
20260905075925 63 0.0 0.0 0.00 0.00 0.00 92 1014.9
20260905074925 63 0.0 0.0 0.00 0.00 0.00 10 1014.8
20260905073925 63 0.0 0.0 0.00 0.00 0.00 10 1014.8
20260905072925 63 0.0 0.0 0.00 0.00 0.00 10 1014.8
20260905071925 63 0.0 0.0 0.00 0.00 0.00 10 1014.7
20260905070925 63 0.0 0.0 0.00 0.00 0.00 10 1014.5
20260905065925 62 0.0 0.0 0.00 0.00 0.00 10 1014.4
20260905064925 62 0.0 0.0 0.00 0.00 0.00 10 1014.4
20260905063925 62 0.0 0.0 0.00 0.00 0.00 10 1014.2
20260905062925 62 0.0 0.0 0.00 0.00 0.00 10 1014.1
20260905061925 62 0.0 0.0 0.00 0.00 0.00 10 1014.2
20260905060925 62 0.0 0.0 0.00 0.00 0.00 10 1014.0
20260905055925 61 0.0 0.0 0.00 0.00 0.00 10 1014.0
20260905054925 61 0.0 0.0 0.00 0.00 0.00 10 1014.0
20260905053925 61 0.0 0.0 0.00 0.00 0.00 10 1013.8
20260905052925 61 0.0 0.0 0.00 0.00 0.00 10 1013.6
20260905051925 61 0.0 0.0 0.00 0.00 0.00 10 1013.6
20260905050925 61 0.0 0.0 0.00 0.00 0.00 10 1013.4
20260905045925 61 0.0 0.0 0.00 0.00 0.00 10 1013.3
20260905044925 61 0.0 0.0 0.00 0.00 0.00 10 1013.4
20260905043925 61 0.0 0.0 0.00 0.00 0.00 10 1013.2
20260905042925 61 0.0 0.0 0.00 0.00 0.00 10 1012.8
20260905041925 61 0.0 0.0 0.00 0.00 0.00 10 1012.9
20260905040925 61 0.0 0.0 0.00 0.00 0.00 10 1012.9
20260905035925 61 0.0 0.0 0.00 0.00 0.00 10 1012.9
20260905034925 61 0.0 0.0 0.00 0.00 0.00 10 1012.6
20260905033925 61 0.0 0.0 0.00 0.00 0.00 10 1012.4
20260905032925 61 0.0 0.0 0.00 0.00 0.00 10 1012.2
20260905031924 61 0.0 0.0 0.00 0.00 0.00 10 1012.2
20260905030925 61 0.0 0.0 0.00 0.00 0.00 10 1012.1
20260905025925 61 0.0 0.0 0.00 0.00 0.00 10 1012.0
20260905024924 61 0.0 0.0 0.00 0.00 0.00 10 1011.9
20260905023925 61 0.0 0.0 0.00 0.00 0.00 10 1011.7
20260905022924 61 0.0 0.0 0.00 0.00 0.00 10 1011.6
20260905021924 61 0.0 0.0 0.00 0.00 0.00 10 1011.3
20260905020924 61 0.0 0.0 0.00 0.00 0.00 10 1011.4
20260905015924 61 0.0 0.0 0.00 0.00 0.00 10 1011.6
20260905014924 61 0.0 0.0 0.00 0.00 0.00 10 1011.3
20260905013924 61 0.0 0.0 0.00 0.00 0.00 10 1011.6
20260905012924 61 0.0 0.0 0.00 0.00 0.00 10 1011.3
20260905011924 61 0.0 0.0 0.00 0.00 0.00 10 1010.9
20260905010926 61 0.0 0.0 0.00 0.00 0.00 10 1011.4
20260905005924 61 0.0 0.0 0.00 0.00 0.00 10 1011.5
20260905004924 62 0.0 0.0 0.00 0.00 0.00 10 1011.2
20260905003924 62 0.0 0.0 0.00 0.00 0.00 10 1011.3
20260905002924 62 0.0 0.0 0.00 0.00 0.00 10 1010.9
20260905001924 62 0.0 0.0 0.00 0.00 0.00 10 1010.6
20260905000924 62 0.0 0.0 0.00 0.00 0.00 10 1010.5
20260904235924 62 0.0 0.0 0.00 0.00 0.00 10 1010.8
20260904234924 62 0.0 0.0 0.00 0.00 0.00 10 1010.8
20260904233924 62 0.0 0.0 0.00 0.00 0.00 10 1010.9
20260904232924 62 0.0 0.0 0.00 0.00 0.00 10 1010.1
20260904231924 62 0.0 0.0 0.00 0.00 0.00 10 1009.9
20260904230924 62 0.0 0.0 0.00 0.00 0.00 10 1009.8
20260904225924 62 0.0 0.0 0.00 0.00 0.00 10 1009.9
20260904224924 61 0.0 0.0 0.00 0.00 0.00 10 1009.5
20260904223924 61 0.0 0.0 0.00 0.00 0.00 10 1009.6
20260904222926 62 0.0 0.0 0.00 0.00 0.00 10 1009.6
20260904221924 62 0.0 0.0 0.00 0.00 0.00 10 1009.4
20260904220926 63 0.0 0.0 0.00 0.00 0.00 10 1009.3
20260904215924 64 0.0 0.0 0.00 0.00 0.00 10 1009.0
20260904214924 64 0.0 0.0 0.00 0.00 0.00 10 1008.9
20260904213924 64 0.0 0.0 0.00 0.00 0.00 10 1008.3
20260904212924 65 0.0 0.0 0.00 0.00 0.00 10 1008.3
20260904211924 65 0.0 0.0 0.00 0.00 0.00 10 1008.8
20260904210924 66 0.0 0.0 0.00 0.00 0.00 10 1009.1
20260904205924 66 0.0 0.0 0.00 0.00 0.00 10 1008.6
20260904204924 66 0.0 0.0 0.00 0.00 0.00 10 1008.5
20260904203924 66 0.0 0.0 0.00 0.00 0.00 10 1008.6
20260904202924 67 0.0 0.0 0.00 0.00 0.00 10 1008.8
20260904201924 68 0.0 0.0 0.00 0.00 0.00 10 1009.2
20260904200924 69 0.0 0.0 0.00 0.00 0.00 10 1008.7
20260904195924 69 0.0 0.0 0.00 0.00 0.00 10 1007.8
20260904194924 69 0.0 0.0 0.00 0.00 0.00 10 1007.7
20260904193924 69 0.0 0.0 0.00 0.00 0.00 10 1008.0
20260904192924 70 0.0 0.0 0.00 0.00 0.00 10 1008.1
20260904191924 71 0.0 0.0 0.00 0.00 0.00 10 1008.2
20260904190924 74 0.0 0.0 0.00 0.00 0.00 92 1007.9
20260904185924 75 0.0 0.0 0.00 0.00 0.00 75 1005.8
20260904184924 75 0.0 0.0 0.00 0.00 0.00 74 1005.4
20260904183924 75 0.0 0.0 0.00 0.00 0.00 74 1005.5
20260904182924 75 0.0 0.0 0.00 0.00 0.00 74 1005.4
20260904181923 75 0.0 0.0 0.00 0.00 0.00 74 1005.3
20260904180924 75 0.0 0.0 0.00 0.00 0.00 74 1005.2
20260904175924 75 0.0 0.0 0.00 0.00 0.00 73 1005.3
20260904174923 75 0.0 0.0 0.00 0.00 0.00 74 1005.6
20260904173923 75 0.0 0.0 0.00 0.00 0.00 74 1005.8
20260904172923 75 0.0 0.0 0.00 0.00 0.00 74 1006.1
20260904171923 76 0.0 0.0 0.00 0.00 0.00 73 1006.2
20260904170923 76 0.0 0.0 0.00 0.00 0.00 73 1006.3